User: anonymous   Login
Location: Bella Coola
(52.3721°N, 126.7539°W)
Time: 18:58:24
(UTC-07:00)
Language:

ISS - Orbit

View from above orbital plane
View from above orbital plane
View from above satellite
View from above satellite

Ground track
Ground track

The orbit data is extracted from the following two-line orbital elements,

1 25544U 98067A   19176.02868767  .00016717  00000-0  10270-3 0  9016
2 25544  51.6395 322.3881 0008040  81.6940 278.5123 15.51233610 16460
Epoch (UTC): 25 June 2019 00:41:18
Eccentricity: 0.0008040
inclination: 51.6395°
perigee height: 407 km
apogee height: 418 km
right ascension of ascending node: 322.3881°
argument of perigee: 81.6940°
revolutions per day: 15.51233610
mean anomaly at epoch: 278.5123°
orbit number at epoch: 1646

The dashed part of the orbit path shows where the satellite is in the earth's shadow,  

DLR